Probability
0 0 0 0 0 0 0 0 0 0 0 0 0 0 0 1 1 1 1 1 0 0 0 0 1 2 3 3 3 2 2 3 3 4 3 2 2 1 0 0 0 1 2
0 0 0 0 0 0 0 0 0 0 0 0 0 0 0 0 0 0 0 0 1 1 0 0 1 3 3 3 3 2 2 2 3 3 2 1 1 1 0 0 0 1 2
0 0 0 0 1 0 0 0 0 0 0 0 0 0 0 0 0 0 0 1 2 2 1 1 2 3 3 3 3 3 2 2 3 2 1 0 0 1 1 1 0 0 1
0 0 0 0 0 0 0 0 0 0 0 0 0 0 0 0 0 0 1 2 3 3 2 2 3 3 3 3 3 3 3 2 2 1 0 0 0 1 1 1 0 0 0
0 0 0 0 0 0 0 0 0 0 0 0 0 0 0 0 0 0 1 2 3 3 3 3 3 3 3 3 3 3 3 3 1 0 0 0 0 0 0 0 0 0 0
0 0 0 0 0 0 0 0 0 0 0 0 0 0 0 0 0 0 0 1 3 3 3 3 3 3 3 3 3 3 3 2 1 0 0 0 0 0 0 0 0 1 1
0 0 0 0 1 0 1 1 1 0 0 0 0 0 0 0 0 0 0 1 2 3 3 3 3 3 3 3 3 2 3 2 1 0 0 0 0 0 1 1 1 1 2
0 0 0 0 0 0 1 2 2 1 0 0 0 0 0 0 0 0 0 1 2 3 3 3 3 3 3 3 3 3 2 1 0 0 0 0 0 1 2 2 1 1 2
0 0 0 0 0 0 0 1 1 1 0 0 0 0 0 0 0 0 0 1 1 2 3 3 3 3 3 3 3 3 2 1 0 0 0 0 0 1 3 3 2 2 2
0 0 0 0 0 0 0 0 0 0 0 0 0 0 0 0 0 0 0 0 0 1 2 3 3 3 3 2 2 2 1 0 0 0 0 0 1 2 3 4 4 4 3
0 0 0 0 0 0 0 0 0 0 0 0 0 0 0 0 0 0 0 0 0 1 2 3 3 3 1 1 1 1 0 0 0 0 0 1 2 3 4 5 5 4 3
0 0 0 0 0 0 1 1 2 1 1 0 0 0 0 0 0 0 0 0 0 0 1 2 2 2 1 0 0 0 0 0 0 0 0 1 2 3 5 5 4 2 1
0 0 0 0 0 0 1 2 2 2 1 0 0 0 0 0 0 0 0 0 0 0 0 1 1 1 0 0 0 0 0 0 0 0 1 1 1 2 4 4 3 1 0
1 0 0 0 0 0 0 1 1 1 1 0 0 0 0 0 0 0 0 0 0 0 0 0 0 0 0 0 0 0 0 0 0 0 1 2 1 1 3 3 3 2 1
1 0 0 0 0 0 0 0 0 0 0 0 0 0 0 0 0 0 0 0 0 0 0 0 0 0 0 0 0 0 0 0 0 0 1 1 1 1 3 4 4 3 2
1 0 0 0 0 0 0 0 0 0 0 0 0 0 0 0 0 0 0 0 0 0 0 0 0 0 0 0 0 0 0 0 0 0 0 1 1 2 3 4 4 3 2
2 1 0 0 0 0 0 0 0 0 0 0 0 0 0 0 0 0 0 1 1 0 0 0 0 0 0 0 0 0 0 0 0 0 0 1 2 2 2 2 2 2 2
3 2 1 1 0 0 0 0 0 0 0 0 0 0 0 0 0 0 0 1 1 0 0 0 0 0 0 0 0 0 0 0 0 0 0 1 1 1 1 0 1 2 2
3 3 3 2 1 0 0 0 0 0 0 0 0 0 0 0 0 0 0 1 1 0 0 0 1 0 0 0 0 0 0 0 0 0 0 0 0 0 0 0 1 2 3
2 3 3 2 1 0 0 0 0 0 0 0 0 0 0 0 0 0 0 0 0 0 0 0 0 0 0 0 0 0 0 0 0 0 0 1 0 0 0 0 1 2 2
1 2 3 2 1 0 0 0 0 0 0 0 0 0 0 0 0 0 0 0 0 0 0 0 0 0 0 0 0 0 0 0 0 0 0 0 0 0 0 0 0 1 1
1 2 2 1 0 0 0 0 0 0 0 0 0 0 0 0 0 0 0 0 0 0 0 0 0 0 0 0 0 0 0 0 0 0 0 0 0 0 0 0 0 0 0
2 2 1 0 0 0 0 0 0 0 0 0 0 0 0 0 0 0 0 0 0 0 0 0 0 0 0 0 0 0 0 0 0 0 0 0 0 0 1 1 1 0 0
2 1 0 0 0 0 0 0 0 0 0 0 0 0 0 0 0 0 0 0 0 0 0 0 0 0 0 0 0 0 0 0 0 0 0 0 0 0 1 2 1 1 1
1 0 0 0 0 0 0 0 0 0 0 0 0 0 0 0 0 0 0 0 0 0 0 0 0 0 0 0 0 0 0 0 0 0 0 0 0 0 1 3 2 1 1
0 0 0 0 0 0 0 0 0 0 0 0 0 0 0 0 0 0 0 0 0 0 0 0 0 0 0 0 0 0 0 0 0 0 0 0 0 0 1 4 3 1 1
Wind_Speed
0 0 4 6 8 9 9 9 10 11 11 12 13 13 13 13 13 13 13 13 13 12 12 12 12 12 11 11 11 10 10 12 11 11 11 11 11 11 11 11 11 8 12
1 1 4 6 8 8 9 9 10 10 11 11 12 12 12 12 12 12 12 12 12 12 12 11 11 11 11 11 10 9 10 11 11 11 11 10 10 10 10 11 10 7 11
2 2 4 6 7 8 9 9 9 10 11 11 11 12 12 12 12 12 12 12 11 11 11 11 11 10 10 10 10 10 10 10 10 10 9 5 6 8 9 11 11 11 10
3 2 4 7 7 8 8 9 9 10 11 11 11 11 11 11 11 11 11 11 11 10 10 10 10 9 9 9 9 9 9 9 9 8 4 4 4 7 9 10 10 10 10
2 2 4 7 7 8 8 8 9 9 10 10 10 10 10 10 10 11 11 10 10 10 10 10 9 9 9 9 8 8 8 8 8 6 4 3 3 6 8 9 10 10 10
2 2 3 7 7 7 8 8 9 9 9 10 9 9 9 10 10 10 10 9 9 9 9 8 8 8 8 7 6 6 7 7 6 4 3 3 3 6 8 8 9 9 9
1 1 3 6 7 7 8 8 8 9 9 9 8 9 9 9 9 9 8 8 8 8 7 7 7 6 6 6 5 5 5 5 4 4 3 2 3 5 7 7 8 8 9
1 1 2 6 7 7 8 8 8 8 8 8 8 9 8 8 8 7 7 7 7 7 6 6 6 5 5 4 4 4 4 3 3 3 3 3 4 5 6 6 7 8 8
2 1 1 2 4 7 7 7 7 8 8 7 7 7 7 7 7 6 5 5 6 6 6 5 4 4 3 3 3 3 3 3 3 2 2 2 4 6 6 6 6 7 8
3 2 2 2 2 2 3 7 8 8 7 7 6 6 6 6 5 5 4 4 5 5 4 4 3 3 2 2 3 3 3 3 2 1 1 2 5 6 6 6 6 6 7
2 3 2 3 3 3 2 4 5 6 6 5 4 5 5 3 3 2 3 4 4 3 3 3 2 2 3 2 2 3 3 1 1 1 1 2 4 5 6 6 6 6 6
2 1 2 2 3 2 2 3 2 3 3 3 3 3 3 2 1 2 2 2 2 2 2 2 2 2 3 2 2 2 1 1 1 0 1 3 4 4 6 6 6 6 7
2 1 2 2 3 3 2 2 2 2 2 3 3 3 2 2 2 2 1 1 2 2 2 2 2 2 2 1 1 1 1 1 0 0 1 2 3 4 5 5 6 6 6
2 2 1 2 2 2 2 2 2 2 2 2 2 2 2 1 2 2 1 1 1 1 1 2 1 2 2 1 1 1 1 1 0 0 1 2 2 3 4 3 4 5 5
2 2 1 2 2 2 2 1 2 2 1 1 1 2 2 2 1 1 1 1 1 1 2 1 1 2 1 1 1 1 1 1 1 1 1 1 1 2 3 3 4 4 4
3 2 2 2 2 2 2 2 2 2 1 1 1 1 2 2 1 1 1 1 1 1 1 1 1 1 1 1 1 1 1 1 1 1 1 1 1 1 1 1 2 3 3
3 3 3 3 3 2 2 2 1 1 2 1 1 1 2 2 2 1 1 1 1 1 1 1 2 2 1 2 2 2 2 2 2 2 1 1 1 1 1 0 1 2 2
4 4 3 3 3 3 2 2 2 2 2 1 1 1 1 2 2 2 1 0 1 1 1 1 1 2 1 2 2 2 2 2 2 2 2 2 1 1 1 1 1 1 1
5 5 4 3 4 3 3 2 2 2 2 1 1 1 1 2 2 2 1 1 1 1 1 1 1 1 1 1 1 2 2 2 2 2 2 1 1 1 1 1 2 1 1
5 4 4 3 3 3 3 2 2 2 1 1 1 1 1 1 2 2 1 1 1 1 1 1 1 1 1 1 2 3 2 2 1 1 1 1 1 1 1 1 1 1 2
5 5 4 4 3 3 2 2 2 1 1 1 1 1 1 1 2 2 1 1 1 1 1 2 2 2 2 1 2 2 2 2 2 1 1 1 1 1 1 1 1 1 1
6 6 5 5 4 3 2 2 2 2 1 1 1 1 1 1 1 1 1 1 1 1 2 1 2 2 1 1 2 2 1 2 2 2 2 1 1 1 1 1 1 1 1
6 6 6 5 5 4 3 3 2 2 2 1 1 1 0 0 0 1 1 2 2 2 2 1 2 2 1 1 1 2 2 1 1 2 2 2 2 1 1 2 2 1 1
7 5 5 5 4 4 4 4 4 3 2 2 1 0 0 0 0 1 1 2 2 2 2 1 2 2 2 1 1 1 1 2 1 1 2 2 2 1 2 1 2 2 1
6 6 5 5 4 4 4 5 4 3 2 1 1 0 0 1 1 0 1 1 1 1 1 1 1 2 2 2 1 1 1 1 1 1 1 2 2 1 1 1 1 1 1
6 6 5 6 5 5 5 4 5 4 4 3 2 1 0 0 0 0 1 1 1 1 1 1 1 2 1 2 1 1 2 2 1 2 2 1 2 2 2 1 1 2 1
Wind_Direction
312 62 110 118 122 122 119 118 117 116 114 114 120 121 121 120 119 119 118 119 117 117 114 113 114 115 113 116 119 123 132 135 135 134 134 135 137 137 135 133 132 130 131
155 117 122 123 123 119 118 116 114 114 114 112 115 122 121 121 121 120 118 118 116 116 115 114 113 113 114 115 116 118 131 135 136 134 132 133 137 140 141 138 138 137 137
93 95 115 120 121 118 118 118 118 117 116 115 114 119 123 123 123 122 120 118 118 117 115 114 113 115 116 116 116 116 123 129 132 131 126 127 137 143 145 145 145 143 142
104 100 116 125 122 123 123 122 121 118 118 117 116 116 123 126 126 125 122 121 121 118 116 115 114 115 115 116 118 121 124 128 130 129 122 130 143 148 149 151 152 150 148
96 110 131 131 128 128 126 126 124 120 120 119 118 118 119 119 124 126 125 125 123 120 118 117 115 113 112 113 116 120 125 127 126 120 115 122 139 153 156 157 158 155 153
97 113 136 134 135 135 135 132 128 125 122 121 120 119 119 120 120 122 124 122 121 120 119 117 114 112 115 116 117 117 120 121 118 114 123 136 152 164 163 163 163 162 161
107 115 139 140 142 143 141 138 134 129 127 125 124 121 120 120 120 120 120 121 121 119 118 115 112 112 115 115 118 122 124 123 121 128 139 153 167 171 169 166 166 166 168
120 141 150 151 146 144 143 142 139 134 133 131 129 125 124 123 122 121 121 125 126 123 120 117 113 110 111 115 120 124 126 124 125 138 151 165 180 178 171 169 170 172 173
69 74 89 127 140 145 144 143 143 139 138 135 133 130 129 127 126 127 129 128 127 125 123 118 108 103 103 108 117 124 120 116 107 139 161 162 180 180 178 172 167 171 173
56 59 79 86 96 111 132 142 143 141 139 136 137 134 127 121 119 122 122 129 130 128 123 116 111 100 90 97 104 106 99 95 99 123 147 173 178 184 181 174 175 174 179
71 49 66 83 90 92 109 132 132 133 132 128 128 124 103 74 73 92 117 135 134 127 119 114 112 99 81 80 98 94 75 73 95 115 161 181 187 191 186 188 189 190 191
100 65 65 81 86 90 99 84 73 78 76 72 72 80 75 71 61 76 107 134 126 113 102 88 86 80 71 55 65 66 55 68 88 153 186 196 202 201 197 197 198 201 202
128 106 92 86 83 84 75 82 74 67 66 68 74 80 81 65 48 46 63 70 56 59 48 46 51 56 61 59 54 58 71 60 47 303 228 202 214 214 205 202 205 209 205
132 135 116 99 91 85 81 82 87 82 77 79 82 93 94 80 57 49 61 61 58 57 58 46 44 52 54 48 55 53 40 38 349 294 251 228 223 218 199 197 207 208 212
153 162 146 123 112 103 94 89 99 103 106 99 92 94 108 105 88 74 58 54 54 66 72 63 50 51 45 37 40 51 42 32 358 337 315 269 216 202 204 217 212 213 222
168 163 138 131 131 119 110 100 98 102 104 96 95 101 109 112 113 101 75 58 54 62 72 73 59 54 44 41 33 34 33 21 12 20 11 347 17 142 193 216 225 237 242
174 162 154 151 134 131 126 121 108 100 99 102 101 103 116 124 129 119 97 55 31 51 65 61 55 59 50 49 39 26 24 18 21 39 36 44 36 45 53 10 307 283 272
157 153 162 164 141 139 131 121 104 102 105 99 92 93 119 127 128 120 118 94 52 78 89 89 73 67 52 49 37 22 24 28 34 39 48 60 56 33 24 21 352 332 317
160 155 154 150 140 138 126 114 106 101 93 88 85 90 109 122 133 135 146 136 99 99 94 108 93 109 91 69 65 48 29 29 25 34 45 44 45 30 355 355 352 355 342
156 150 148 140 137 129 114 99 84 80 74 74 86 83 103 118 130 136 139 119 111 106 87 93 104 85 91 88 78 59 37 28 28 28 14 7 15 6 346 332 346 340 329
154 151 154 149 149 134 118 121 114 123 121 99 110 119 126 124 124 126 110 95 107 125 140 140 128 103 79 90 86 49 23 26 20 2 6 14 2 343 342 308 305 306 320
173 170 164 168 164 160 150 143 136 131 127 119 66 64 84 107 126 144 147 144 143 134 118 120 126 116 90 86 110 98 18 357 1 11 19 12 335 328 310 294 281 270 283
184 184 180 177 172 169 152 120 99 76 58 55 41 25 18 93 142 142 151 153 146 142 148 152 147 138 136 73 86 129 136 235 320 350 6 7 351 341 318 310 294 279 257
190 180 174 172 171 169 156 150 150 152 163 194 187 229 330 61 70 144 150 148 142 144 155 170 144 141 141 142 98 83 132 151 148 332 342 358 345 324 317 305 302 292 263
179 176 175 166 169 168 166 166 156 158 169 157 128 97 8 15 3 14 140 141 145 147 153 144 131 137 149 154 158 145 111 89 117 160 289 323 336 322 316 300 296 294 279
172 172 169 168 179 174 170 166 165 168 163 156 169 178 217 267 320 334 147 149 155 154 162 172 164 158 155 149 157 152 154 153 177 169 210 279 304 311 317 307 295 291 291